Regional Weather Roundup
Issued by NWS

Home | Current Version | Previous Version | Text Only | Print | Product List | Glossary Off
Versions: 1 2 3 4 5 6 7 8 9 10 11 12 13 14 15 16 17 18 19 20 21 22 23 24 25 26 27 28 29 30 31 32 33 34 35 36 37 38 39 40 41 42 43 44 45 46 47 48 49 50

000
ASUS43 KMPX 021810
RWRMN
WEATHER ROUNDUP FOR MINNESOTA
NATIONAL WEATHER SERVICE TWIN CITIES/CHANHASSEN MN
1200 PM CST MON MAR 02 2015


NOTE: "FAIR" INDICATES FEW OR NO CLOUDS BELOW 12,000 FEET WITH NO
SIGNIFICANT WEATHER AND/OR OBSTRUCTIONS TO VISIBILITY. N/A MEANS
CURRENT SKY AND/OR WEATHER CONDITIONS ARE NOT AVAILABLE.

MNZ060>063-068>070-021900-
   Twin Cities Metro

CITY           SKY/WX    TMP DP  RH WIND       PRES   REMARKS
TWIN CITIES    MOSUNNY   23   4  44 S9        30.45F WCI  13
6HR MIN TEMP:   9; 6HR MAX TEMP:  23;

ST PAUL        SUNNY     25   7  46 SE10      30.46F WCI  15
CRYSTAL        SUNNY     25   5  42 S9        30.43F WCI  15
BLAINE         MOSUNNY   27   7  43 S7        30.43F WCI  19
LAKEVILLE      SUNNY     19   9  63 SE7       30.44F WCI  10
EDEN PRAIRIE   SUNNY     24   6  46 S10       30.43F WCI  14
6HR MIN TEMP:   6; 6HR MAX TEMP:  24;

SOUTH ST PAUL  SUNNY     24   8  50 S8        30.45F WCI  15
LAKE ELMO      FAIR      23   9  54 S7        30.45F WCI  15
$$
MNZ001>005-007-008-013>017-022>024-027-028-021900-
   Northwest Minnesota

CITY           SKY/WX    TMP DP  RH WIND       PRES   REMARKS
BEMIDJI        SUNNY     23   7  50 SW12      30.26F WCI  12
HALLOCK        SUNNY     14  10  85 S16       30.19F WCI  -2
ROSEAU         SUNNY     18  12  79 S14       30.21F WCI   4
WARROAD        SUNNY     19  12  73 S10G16    30.22F WCI   8
THIEF RVR FALL SUNNY     18   9  68 S13       30.22F WCI   4
CROOKSTON      SUNNY     19  14  79 S17       30.24F WCI   4
FOSSTON        SUNNY     21   9  58 S18       30.25F WCI   6
DETROIT LAKES  SUNNY     23  10  58 S13       30.27F WCI  11
MOORHEAD       SUNNY     27   9  46 S21       30.26F WCI  13
PARK RAPIDS    SUNNY     22   7  52 SW10      30.28F WCI  11
MAHNOMEN       FAIR      21  10  61 S21       30.25F WCI   6
$$
MNZ006-009>011-018-025>026-021900-
   North Central Minnesota

CITY           SKY/WX    TMP DP  RH WIND       PRES   REMARKS
BAUDETTE       SUNNY     19   9  65 S8        30.22F WCI   9
FLAG ISLAND    SUNNY      7   1  78 S14       30.21F WCI -10
INTL FALLS     SUNNY     21   6  52 SW13      30.27F WCI   9
6HR MIN TEMP: -15; 6HR MAX TEMP:  21;

WASKISH        SUNNY     23  12  63 CALM      30.26F
BIG FORK       SUNNY     25  10  54 S10       30.29F WCI  15
LONGVILLE      SUNNY     25   7  46 S9        30.31F WCI  15
GRAND RAPIDS   SUNNY     21  10  63 SW7       30.31F WCI  13
CRANE LAKE     SUNNY     19   3  49 S7        30.32F WCI  10
ORR            SUNNY     21   3  45 SW9       30.27F WCI  11
COOK           SUNNY     21   7  53 S6        30.29F WCI  14
WALKER         FAIR      22   7  52 SW9       30.27F WCI  12
$$
MNZ012-019>021-037-021900-
   Northeast Minnesota

CITY           SKY/WX    TMP DP  RH WIND       PRES   REMARKS
DULUTH         SUNNY     22   8  55 W12       30.33F WCI  10
6HR MIN TEMP:   1; 6HR MAX TEMP:  23;

ELY            SUNNY     19   3  49 SW13      30.31F WCI   7
HIBBING        SUNNY     21   6  52 SW6       30.31F WCI  13
EVELETH        SUNNY     21   7  53 SW10      30.32F WCI  10
DULUTH HARBOR  SUNNY     25  10  54 SW10      30.41F WCI  15
TWO HARBORS    SUNNY     27  12  54 SW14      30.33F WCI  15
SILVER BAY     SUNNY     27   7  43 SW7       30.33F WCI  19
GRAND MARAIS     N/A     23  13  65 SW14G21   30.39S WCI  11
G MARAIS ARPRT SUNNY     18   5  57 S7        30.28S WCI   8
$$
MNZ029>031-032-039>041-046>048-054>057-064-021900-
   West Central Minnesota

CITY           SKY/WX    TMP DP  RH WIND       PRES   REMARKS
FERGUS FALLS   SUNNY     25   9  50 S20       30.32F WCI  11
WHEATON        SUNNY     23  10  58 SE17      30.31F WCI   9
MORRIS         SUNNY     25  10  54 S17       30.31F WCI  11
ALEXANDRIA     SUNNY     21   8  57 S15       30.32F WCI   8
ELBOW LAKE     FAIR      23  12  63 S17       30.30F WCI   9
WADENA         SUNNY     21   9  58 S10G16    30.30F WCI  10
GLENWOOD       SUNNY     25  10  54 S14       30.34F WCI  13
APPLETON       SUNNY     27  10  50 S13       30.34F WCI  16
BENSON         SUNNY     27   7  43 S15       30.35F WCI  15
ORTONVILLE     SUNNY     25  10  54 S13       30.30F WCI  13
MADISON        SUNNY     28  16  59 S15       30.33F WCI  17
WILLMAR        FAIR      25   9  50 S7        30.39F WCI  17
$$
MNZ033>034-036-042>043-049>051-058-059-021900-
   Central Minnesota

CITY           SKY/WX    TMP DP  RH WIND       PRES   REMARKS
ST CLOUD       SUNNY     24   7  48 S14       30.39F WCI  12
6HR MIN TEMP:   0; 6HR MAX TEMP:  24;

SAUK CENTRE    FAIR      24   9  52 S14G21    30.35F WCI  11
PAYNESVILLE    SUNNY     21   7  54 E12G20    30.37F WCI   9
AITKIN         SUNNY     27   9  46 SW6       30.33F WCI  20
PINE RIVER     SUNNY     23   9  54 S6        30.34F WCI  16
BRAINERD       SUNNY     22   7  52 S9        30.33F WCI  12
STAPLES        SUNNY     21   7  53 S9        30.33F WCI  11
LONG PRAIRIE   FAIR      23  10  58 S14       30.34F WCI  11
LITTLE FALLS   SUNNY     25   9  50 S8        30.37F WCI  16
LITCHFIELD     SUNNY     25  10  54 S6        30.39F WCI  18
BUFFALO        SUNNY     23   9  54 S8        30.43F WCI  14
MAPLE LAKE     SUNNY     25  10  53 SW7       30.41F WCI  17
$$
MNZ037-044-045-052-053-021900-
   East Central Minnesota

CITY           SKY/WX    TMP DP  RH WIND       PRES   REMARKS
PRINCETON      SUNNY     25   9  50 SE6       30.40F WCI  18
MORA           SUNNY     25  10  54 S7        30.41F WCI  17
CAMBRIDGE      SUNNY     23   9  54 SE7       30.40F WCI  15
RUSH CITY      SUNNY     23   8  52 S7        30.42F WCI  14
MOOSE LAKE     SUNNY     27   7  43 CALM      30.36F
HINCKLEY       FAIR      23  10  58 S8        30.40F WCI  14
CLOQUET        SUNNY     21   7  53 SW9       30.34F WCI  11
MCGREGOR       SUNNY     25  10  54 S6        30.36F WCI  18
$$
MNZ071>073-080-081-089-090-097-098-021900-
   Southwest Minnesota

CITY           SKY/WX    TMP DP  RH WIND       PRES   REMARKS
MONTEVIDEO     SUNNY     27  12  54 SW14      30.37F WCI  15
GRANITE FALLS  SUNNY     26  14  60 SE15      30.39F WCI  13
CANBY          MOSUNNY   27  14  57 S14G20    30.34F WCI  16
MARSHALL       MOSUNNY   27  12  54 S18       30.37F WCI  13
REDWOOD FALLS  SUNNY     24  11  57 S15       30.40F WCI  11
OLIVIA         SUNNY     23  12  63 S13       30.38F WCI  11
PIPESTONE      PTSUNNY   21  14  73 S16       30.30F WCI   7
WINDOM         MOSUNNY   21  10  63 S13       30.38F WCI   9
WORTHINGTON    PTSUNNY   21  12  68 S12       30.37F WCI   9
JACKSON        PTSUNNY   23  14  68 S10       30.40F WCI  12
TRACY          MOSUNNY   25  13  61 S14       30.36F WCI  13
SLAYTON        CLOUDY    23  11  60 S17       30.34F WCI   9
$$
MNZ065>067-074>077-082>085-091>093-021900-
   South Central Minnesota

CITY           SKY/WX    TMP DP  RH WIND       PRES   REMARKS
MANKATO        SUNNY     21   9  58 S9G16     30.44F WCI  11
NEW ULM        SUNNY     21  10  63 S16       30.42F WCI   7
ST JAMES       MOSUNNY   23  12  63 SE12      30.44F WCI  12
FAIRMONT       MOSUNNY   21  10  63 S12       30.42F WCI   9
GLENCOE        SUNNY     25  13  61 S6        30.42F WCI  18
FARIBAULT      SUNNY     21  10  63 S8        30.45F WCI  12
OWATONNA       SUNNY     21   9  58 S13       30.44F WCI   9
WASECA         SUNNY     21  12  68 S8        30.47F WCI  12
ALBERT LEA     SUNNY     19   9  63 S6        30.44F WCI  11
$$
MNZ078>079-086>088-094>096-021900-
   Southeast Minnesota

CITY           SKY/WX    TMP DP  RH WIND       PRES   REMARKS
ROCHESTER      SUNNY     17   8  67 S7        30.44F WCI   8
6HR MIN TEMP:   2; 6HR MAX TEMP:  17; 6HR PCP: TRACE;

RED WING       SUNNY     25   7  46 SE6       30.46F WCI  18
STANTON        SUNNY     23   6  47 S8        30.44F WCI  14
DODGE CENTER   SUNNY     18  10  73 S9        30.44F WCI   6
WINONA         SUNNY     25   9  50 CALM      30.49F
AUSTIN         SUNNY     18   9  68 S5        30.45F WCI  11
PRESTON        SUNNY     19   6  57 S6        30.45F WCI  11
$$
ABBREVIATIONS USED IN REMARKS
   TC - TEMPERATURES IN CELSIUS
  WCI - WIND CHILL INDEX
   HX - HEAT INDEX
  VSB - VISIBILITY
$$


USA.gov is the U.S. government's official web portal to all federal, state and local government web resources and services.